COMPASS 1

Satellite information

Favourite Embed

Satellite Type and Status

PAYLOADIN ORBIT

Key statistics

Satellite COMPASS 1 at a glance.

Uptime

6280

Days in orbit

Revolutions

≈ 15.5

Per day

Orbit

SSO

Sun Synchronous Orbit

Inclination

97.6

Latest

Satellite identification and parameters

Extended collection of information and parameters for COMPASS 1.

Object identification

Identified? True

Debris? False

Object name: COMPASS 1

International designator: 2008-021E

Object number (NORAD): 32787

Object ID (CCSDS): 32787

Country: GERMANY (GER)

Current information (Y/N): Y

RCS size: SMALL

Orbital parameters

Period: 93.053 minutes

Inclination: 97.6429 deg

SMA: 6802.142 km

Apoapsis: 425.23 km

Periapsis: 422.785 km

RAAN: 180.6632 deg

Eccentricy: 0.0001797

Argument of periapsis: 251.4251 deg

Mean anomaly: 108.6803 deg

Mean motion: 15.47512629 rev/day

Mean motion (dot): 0.00041156 rev/day2

B* drag term: 0.00079969 1/REarth

Two-line elements (TLE)

Creation date: July 8, 2025, 2:27 a.m.

Reference frame: TEME

Reference center: EARTH

Epoch: July 7, 2025, 9:08 p.m. UTC

TLE line 0: 0 COMPASS 1

TLE line 1: 1 32787U 08021E 25188.88105579 .00041156 00000-0 79969-3 0 9995

TLE line 2: 2 32787 97.6429 180.6632 0001797 251.4251 108.6803 15.47512629936620

Live tracking on map

Real-time ground track for satellite COMPASS 1.

In-orbit conjunctions

There are no conjunctions computed for COMPASS 1, at the moment. Check back to stay up to date, as we update our databases every day.

Go to all conjunctions

Associated space launch

Indian Earth observation satellite. Launched alongside 9 nanosatellites.

COMPASS 1 was lifted into orbit during the mission ‘PSLV | Cartosat 2A’, on board a PSLV space rocket.

The launch took place on April 28, 2008, 3:53 a.m. from Satish Dhawan Space Centre Second Launch Pad.

For more information about the launch, click the button.

Launch to space PSLV | Cartosat 2A
PSLV | Cartosat 2A

Agency: N/A

Status: Launch Successful

Launch date: April 28, 2008, 3:53 a.m. UTC

Rocket: PSLV

Launch pad: Satish Dhawan Space Centre Second Launch Pad

Location: Satish Dhawan Space Centre, India

...

Latest news about this satellite

There are no fresh news available about this satellite. Check back as we update our databases every day.


Newsletter sign-up

Weekly statistics, charts and insights to help you stay on top of the space industry.